Location: Владивосток
(43.1151°N, 131.8856°E)
Time: 23:43:54
(UTC+10:00)

NOAA 15 - Visible Passes

Search period start: 13 April 2024 00:00
Search period end: 23 April 2024 00:00
Orbit: 795 x 811 km, 98.6° (Epoch: 13 April)

Date Brightness Start Highest point End Pass type
(mag) Time Alt. Az. Time Alt. Az. Time Alt. Az.
13 Apr 5.5 20:24:41 10° S 20:29:50 53° W 20:35:01 10° NNW visible
14 Apr 7.6 21:43:09 10° WSW 21:44:36 11° W 21:46:03 10° WNW visible
15 Apr 7.2 21:14:51 10° SW 21:18:37 20° W 21:22:24 10° NW visible
16 Apr 6.4 20:48:01 10° SSW 20:52:44 33° W 20:57:29 10° NNW visible
17 Apr 5.4 20:21:47 10° S 20:26:57 56° W 20:32:09 10° NNW visible
18 Apr 7.5 21:39:48 10° WSW 21:41:41 12° W 21:43:34 10° WNW visible
19 Apr 7.1 21:11:48 10° SW 21:15:42 21° W 21:19:37 10° NW visible
20 Apr 6.3 20:45:03 10° SSW 20:49:50 35° W 20:54:38 10° NNW visible
22 Apr 7.5 21:36:32 10° WSW 21:38:45 13° W 21:40:59 10° WNW visible
